When you browse on this site, cookies collect data to enhance your experience and personalize the content and advertising you see.
Visit our Privacy Policy to learn more. By continuing to use the site, you agree to this use of cookies and data.
  • In Lithuania
  • List of Countries
  • For 7 days
  • Water Temperature
  • Weather Map
  • Weather Widgets
  • user-avatar
    Login

    Hourly Weather El Guna

    Today, 28 May, Thursday

    Time Temperature Precipitation Wind Pressure Humidity
    00:00 +26°C° 0 mm 3 mps 732 mmHg 28%
    01:00 +26°C° 0 mm 3 mps 732 mmHg 30%
    02:00 +25°C° 0 mm 3 mps 732 mmHg 33%
    03:00 +24°C° 0 mm 3 mps 732 mmHg 36%
    04:00 +24°C° 0 mm 3 mps 732 mmHg 40%
    05:00 +22°C° 0 mm 3 mps 732 mmHg 43%
    06:00 +25°C° 0 mm 4 mps 733 mmHg 38%
    07:00 +27°C° 0 mm 4 mps 733 mmHg 33%
    08:00 +29°C° 0 mm 4 mps 733 mmHg 28%
    09:00 +32°C° 0 mm 5 mps 734 mmHg 25%
    10:00 +33°C° 0 mm 5 mps 734 mmHg 21%
    11:00 +35°C° 0 mm 6 mps 734 mmHg 18%
    12:00 +36°C° 0 mm 6 mps 733 mmHg 16%
    13:00 +36°C° 0 mm 7 mps 733 mmHg 14%
    14:00 +38°C° 0 mm 8 mps 732 mmHg 12%
    15:00 +37°C° 0 mm 8 mps 732 mmHg 12%
    16:00 +35°C° 0 mm 8 mps 732 mmHg 12%
    17:00 +34°C° 0 mm 8 mps 732 mmHg 12%
    18:00 +32°C° 0 mm 6 mps 732 mmHg 14%
    19:00 +29°C° 0 mm 5 mps 732 mmHg 16%
    20:00 +27°C° 0 mm 4 mps 732 mmHg 19%
    21:00 +27°C° 0 mm 4 mps 733 mmHg 20%
    22:00 +26°C° 0 mm 4 mps 733 mmHg 22%
    23:00 +26°C° 0 mm 5 mps 733 mmHg 23%

    Tomorrow, 29 May, Friday

    Time Temperature Precipitation Wind Pressure Humidity
    00:00 +25°C° 0 mm 5 mps 733 mmHg 25%
    01:00 +25°C° 0 mm 5 mps 733 mmHg 28%
    02:00 +23°C° 0 mm 5 mps 733 mmHg 30%
    03:00 +22°C° 0 mm 5 mps 733 mmHg 31%
    04:00 +22°C° 0 mm 5 mps 733 mmHg 33%
    05:00 +22°C° 0 mm 5 mps 733 mmHg 34%
    06:00 +23°C° 0 mm 6 mps 733 mmHg 31%
    07:00 +26°C° 0 mm 6 mps 734 mmHg 28%
    08:00 +28°C° 0 mm 7 mps 734 mmHg 25%
    09:00 +29°C° 0 mm 7 mps 734 mmHg 23%
    10:00 +32°C° 0 mm 8 mps 734 mmHg 20%
    11:00 +33°C° 0 mm 8 mps 734 mmHg 18%
    12:00 +34°C° 0 mm 8 mps 734 mmHg 17%
    13:00 +34°C° 0 mm 8 mps 734 mmHg 16%
    14:00 +35°C° 0 mm 8 mps 733 mmHg 14%
    15:00 +34°C° 0 mm 8 mps 733 mmHg 15%
    16:00 +34°C° 0 mm 8 mps 732 mmHg 16%
    17:00 +33°C° 0 mm 7 mps 732 mmHg 17%
    18:00 +30°C° 0 mm 6 mps 732 mmHg 19%
    19:00 +28°C° 0 mm 5 mps 732 mmHg 22%
    20:00 +25°C° 0 mm 3 mps 733 mmHg 24%
    21:00 +25°C° 0 mm 4 mps 733 mmHg 24%
    22:00 +23°C° 0 mm 4 mps 733 mmHg 24%
    23:00 +23°C° 0 mm 4 mps 733 mmHg 23%

    Day after tomorrow, 30 May, Saturday

    Time Temperature Precipitation Wind Pressure Humidity
    00:00 +22°C° 0 mm 4 mps 732 mmHg 26%
    01:00 +22°C° 0 mm 4 mps 732 mmHg 28%
    02:00 +21°C° 0 mm 4 mps 732 mmHg 31%
    03:00 +21°C° 0 mm 4 mps 732 mmHg 31%
    04:00 +21°C° 0 mm 4 mps 732 mmHg 31%
    05:00 +20°C° 0 mm 4 mps 733 mmHg 31%
    06:00 +22°C° 0 mm 5 mps 733 mmHg 28%
    07:00 +24°C° 0 mm 6 mps 733 mmHg 25%
    08:00 +27°C° 0 mm 7 mps 733 mmHg 22%
    09:00 +28°C° 0 mm 6 mps 733 mmHg 19%
    10:00 +30°C° 0 mm 6 mps 733 mmHg 16%
    11:00 +33°C° 0 mm 6 mps 733 mmHg 13%
    12:00 +34°C° 0 mm 6 mps 733 mmHg 12%
    13:00 +34°C° 0 mm 7 mps 732 mmHg 11%
    14:00 +35°C° 0 mm 7 mps 732 mmHg 9%
    15:00 +34°C° 0 mm 7 mps 732 mmHg 9%
    16:00 +34°C° 0 mm 7 mps 732 mmHg 9%
    17:00 +33°C° 0 mm 7 mps 731 mmHg 9%
    18:00 +30°C° 0 mm 6 mps 731 mmHg 11%
    19:00 +28°C° 0 mm 5 mps 732 mmHg 13%
    20:00 +26°C° 0 mm 4 mps 732 mmHg 15%
    21:00 +25°C° 0 mm 4 mps 732 mmHg 17%
    22:00 +25°C° 0 mm 4 mps 732 mmHg 20%
    23:00 +23°C° 0 mm 4 mps 732 mmHg 22%

    31 May, Sunday

    Time Temperature Precipitation Wind Pressure Humidity
    00:00 +23°C° 0 mm 4 mps 732 mmHg 24%
    01:00 +22°C° 0 mm 4 mps 731 mmHg 27%
    02:00 +22°C° 0 mm 3 mps 731 mmHg 30%
    03:00 +21°C° 0 mm 3 mps 731 mmHg 26%
    04:00 +21°C° 0 mm 3 mps 731 mmHg 22%
    05:00 +21°C° 0 mm 3 mps 731 mmHg 18%
    06:00 +23°C° 0 mm 4 mps 731 mmHg 16%
    07:00 +26°C° 0 mm 4 mps 731 mmHg 14%
    08:00 +29°C° 0 mm 5 mps 732 mmHg 11%
    09:00 +30°C° 0 mm 5 mps 732 mmHg 11%
    10:00 +33°C° 0 mm 5 mps 732 mmHg 11%
    11:00 +35°C° 0 mm 5 mps 732 mmHg 10%
    12:00 +36°C° 0 mm 5 mps 731 mmHg 10%
    13:00 +36°C° 0 mm 6 mps 731 mmHg 11%
    14:00 +38°C° 0 mm 7 mps 730 mmHg 11%
    15:00 +38°C° 0 mm 7 mps 730 mmHg 11%
    16:00 +36°C° 0 mm 7 mps 730 mmHg 12%
    17:00 +35°C° 0 mm 7 mps 730 mmHg 12%
    18:00 +33°C° 0 mm 6 mps 730 mmHg 16%
    19:00 +30°C° 0 mm 5 mps 730 mmHg 19%
    20:00 +27°C° 0 mm 4 mps 730 mmHg 22%
    21:00 +27°C° 0 mm 4 mps 730 mmHg 24%
    22:00 +26°C° 0 mm 4 mps 730 mmHg 26%
    23:00 +25°C° 0 mm 4 mps 730 mmHg 28%

    1 June, Monday

    Time Temperature Precipitation Wind Pressure Humidity
    00:00 +25°C° 0 mm 4 mps 730 mmHg 25%
    01:00 +24°C° 0 mm 3 mps 730 mmHg 23%
    02:00 +24°C° 0 mm 3 mps 730 mmHg 21%
    03:00 +24°C° 0 mm 2 mps 730 mmHg 17%
    04:00 +23°C° 0 mm 2 mps 730 mmHg 13%
    05:00 +23°C° 0 mm 2 mps 730 mmHg 8%
    06:00 +26°C° 0 mm 3 mps 730 mmHg 8%
    07:00 +28°C° 0 mm 3 mps 731 mmHg 7%
    08:00 +32°C° 0 mm 4 mps 731 mmHg 6%
    09:00 +34°C° 0 mm 4 mps 731 mmHg 6%
    10:00 +35°C° 0 mm 4 mps 731 mmHg 6%
    11:00 +37°C° 0 mm 5 mps 731 mmHg 6%
    12:00 +39°C° 0 mm 5 mps 730 mmHg 6%
    13:00 +40°C° 0 mm 6 mps 730 mmHg 6%
    14:00 +40°C° 0 mm 6 mps 729 mmHg 6%
    15:00 +40°C° 0 mm 6 mps 729 mmHg 7%
    16:00 +39°C° 0 mm 6 mps 729 mmHg 8%
    17:00 +39°C° 0 mm 6 mps 729 mmHg 9%
    18:00 +36°C° 0 mm 5 mps 729 mmHg 13%
    19:00 +33°C° 0 mm 4 mps 729 mmHg 16%
    20:00 +30°C° 0 mm 3 mps 729 mmHg 20%
    21:00 +30°C° 0 mm 3 mps 729 mmHg 20%
    22:00 +30°C° 0 mm 3 mps 730 mmHg 21%
    23:00 +29°C° 0 mm 4 mps 730 mmHg 22%

    2 June, Tuesday

    Time Temperature Precipitation Wind Pressure Humidity
    00:00 +28°C° 0 mm 3 mps 730 mmHg 21%
    01:00 +28°C° 0 mm 2 mps 729 mmHg 20%
    02:00 +27°C° 0 mm 2 mps 729 mmHg 19%
    03:00 +26°C° 0 mm 2 mps 729 mmHg 20%
    04:00 +25°C° 0 mm 1 mps 729 mmHg 21%
    05:00 +25°C° 0 mm 1 mps 729 mmHg 22%
    06:00 +28°C° 0 mm 1 mps 729 mmHg 19%
    07:00 +31°C° 0 mm 1 mps 730 mmHg 16%
    08:00 +35°C° 0 mm 2 mps 730 mmHg 12%
    09:00 +36°C° 0 mm 2 mps 730 mmHg 11%
    10:00 +38°C° 0 mm 3 mps 730 mmHg 10%
    11:00 +40°C° 0 mm 3 mps 730 mmHg 9%
    12:00 +40°C° 0 mm 3 mps 730 mmHg 8%
    13:00 +42°C° 0 mm 3 mps 730 mmHg 8%
    14:00 +42°C° 0 mm 4 mps 729 mmHg 8%
    15:00 +42°C° 0 mm 3 mps 729 mmHg 8%
    16:00 +40°C° 0 mm 3 mps 728 mmHg 8%
    17:00 +40°C° 0 mm 3 mps 728 mmHg 9%
    18:00 +38°C° 0 mm 2 mps 728 mmHg 10%
    19:00 +35°C° 0 mm 2 mps 728 mmHg 12%
    20:00 +32°C° 0 mm 1 mps 728 mmHg 13%
    21:00 +31°C° 0 mm 1 mps 728 mmHg 14%
    22:00 +31°C° 0 mm 1 mps 728 mmHg 14%
    23:00 +31°C° 0 mm 1 mps 729 mmHg 15%
    Show more